sat.trackr.live / text

‹ back to catalog

KUIPER-00223

NORAD 67783 · 2026-030V

PAYLOAD ACTIVE UNKNOWN

§ Identity

Operator
Country
US
Launch date
2026-02-12
Launch site
FRGUI
Launch vehicle
Mass (kg)
RCS (m²)

External: N2YO · Heavens-Above · Gunter

§ Orbital elements

Epoch: 2026-05-25T04:00:03.998880Z

Period
96.82 min
Inclination
51.8976°
Eccentricity
0.0007579
Mean motion
14.87353135 rev/d
Perigee alt
600.9 km
Apogee alt
611.5 km
Semi-major
6,984.3 km
B*
-1.0858e-5
RAAN
214.8489°
Arg perigee
4.4521°
Mean anomaly
76.6627°
Rev number
591

§ Raw data

KUIPER-002231 67783U 26030V   26145.16671295 -.00000337  00000+0 -10858-4 0  99972 67783  51.8976 214.8489 0007579   4.4521  76.6627 14.87353135  5918

JSON: /api/v1/satellites/67783 · /tle

For live sub-satellite position, see the globe view (requires WebGL).

§ Visibility from observer

Set your observer location to see the next 7 days of passes ≥ 10°. The values pass through the URL so the page stays shareable.

No JS? Fill the form by hand. The geolocation button needs JavaScript.